Regional Weather Roundup
Issued by NWS

Home | Current Version | Previous Version | Graphics & Text | Print | Product List | Glossary On
Versions: 1 2 3 4 5 6 7 8 9 10 11 12 13 14 15 16 17 18 19 20 21 22 23 24 25 26 27 28 29 30 31 32 33 34 35 36 37 38 39 40 41 42 43 44 45 46 47 48 49 50
000
ASUS43 KLMK 270602
RWRKY
KENTUCKY REGIONAL WEATHER ROUNDUP
NATIONAL WEATHER SERVICE LOUISVILLE KY
100 AM EST SAT DEC 27 2014

NOTE "FAIR" INDICATES FEW OR NO CLOUDS BELOW 12,000 FEET
WITH NO SIGNIFICANT WEATHER AND/OR OBSTRUCTIONS TO VISIBILITY.

KYZ001>023-026-027-061>063-070>075-270700-
WESTERN AND SOUTH CENTRAL KENTUCKY

CITY           SKY/WX    TMP DP  RH WIND       PRES   REMARKS
PADUCAH        CLOUDY    49  39  68 S5        30.15F
HENDERSON      CLOUDY    48  36  61 S12       30.15F
OWENSBORO      CLOUDY    47  38  71 S6        30.18S
HOPKINSVILLE   NOT AVBL
BOWLING GREEN  PTCLDY    48  37  65 SW3       30.22R
GLASGOW        NOT AVBL
$$

KYZ024-025-028>034-038-045-046-053-270700-
NORTH CENTRAL KENTUCKY

CITY           SKY/WX    TMP DP  RH WIND       PRES   REMARKS
LOUISVILLE/SDF CLOUDY    51  32  48 S7        30.18F
LOUISVILLE/LOU MOCLDY    49  34  56 S3        30.19S
FORT KNOX      NOT AVBL
$$

KYZ035>037-039>044-047>052-055>060-089>105-270700-
NORTHEAST KENTUCKY

CITY           SKY/WX    TMP DP  RH WIND       PRES   REMARKS
LEXINGTON      CLOUDY    45  34  65 S8        30.21R
COVINGTON      MOCLDY    45  31  58 SW6       30.18R
FRANKFORT      CLOUDY    48  30  49 SW10      30.18S
$$

KYZ054-064>069-076>088-106>120-270700-
SOUTHEAST KENTUCKY

CITY           SKY/WX    TMP DP  RH WIND       PRES   REMARKS
JACKSON        LGT RAIN  47  25  42 SW3       30.21S
LONDON         MOCLDY    45  29  53 CALM      30.21F
SOMERSET       NOT AVBL
MIDDLESBORO    MOCLDY    40  35  81 CALM      30.24F
MONTICELLO     CLOUDY    44  37  76 CALM      30.24S
$$




USA.gov is the U.S. government's official web portal to all federal, state and local government web resources and services.